#timestamp,LO_Frequency,Hit,StdDev 
1642208415.4,286046999.9,N
1642208435.3,286047000.5,N
1642208455.1,286047002.8,N
1642208475.9,286047001.9,N
1642208495.7,286047002.2,N
1642208515.5,286047002.3,N
1642208535.4,286047002.6,N
1642208555.2,286047002.4,N
1642208575.1,286047002.8,N
1642208576.0,286047002.8,N
1642208595.8,286047000.1,N
1642208615.6,286047000.2,N
1642208635.5,286047002.2,N
1642208655.3,286047002.7,N
1642208675.2,286047002.5,N
1642208695.9,286047002.6,N
1642208715.7,286047001.9,N
1642208735.6,286047001.4,N
1642208755.4,286047002.1,N
1642208775.3,286047002.1,N
1642208795.1,286047002.8,N
1642208796.0,286047002.8,N
1642208815.8,286047002.6,N
1642208835.7,286047001.5,N
1642208855.5,286047002.1,N
1642208875.4,286047001.7,N
1642208895.2,286047002.0,N
1642208915.0,286047002.2,N
1642208915.9,286047002.2,N
1642208935.8,286047002.1,N
1642208955.6,286047002.5,Y
1642208975.5,286046999.6,P
1642208995.3,286046997.6,N
1642209015.1,286046996.5,N
1642209035.9,286046999.4,N
1642209055.7,286046996.5,N
1642209075.5,286046999.5,N
1642209095.4,286046998.8,N
1642209115.2,286046999.6,N
1642209135.1,286046998.2,N
1642209136.0,286046998.2,N
1642209155.8,286046997.2,N
1642209175.6,286046999.1,N
1642209195.5,286046998.9,N
1642209215.3,286046998.1,N
1642209235.1,286046999.3,N
1642209255.9,286046997.0,N
1642209275.7,286046998.3,N
1642209295.6,286046998.7,N
1642209315.4,286046998.6,N
1642209335.2,286046998.1,N
1642209355.1,286047000.8,N
1642209356.0,286047000.8,N
1642209375.8,286047000.0,N
1642209395.6,286047000.7,N
1642209415.5,286047000.7,N
1642209435.3,286046998.2,N
1642209455.2,286047000.9,N
1642209475.9,286047000.4,N
1642209495.7,286047000.0,N
1642209515.6,286046998.5,N
1642209535.4,286047000.3,N
1642209555.2,286047000.7,N
1642209575.1,286046998.1,N
1642209576.0,286046998.1,N
1642209595.8,286047000.4,N
1642209615.7,286046998.3,N
1642209635.5,286046996.9,N
1642209655.3,286046999.0,N
1642209675.2,286046999.0,N
1642209695.0,286046999.4,N
1642209695.9,286046999.4,N
1642209715.7,286046998.8,N
1642209735.6,286046998.5,N
1642209755.4,286046998.2,N
1642209775.3,286047000.9,N
1642209795.1,286047001.1,N
1642209815.8,286047000.8,N
1642209835.7,286047000.5,N
1642209855.5,286047002.0,N
1642209875.4,286047001.5,N
1642209895.2,286047001.3,N
1642209915.0,286047001.6,N
1642209915.9,286047001.6,N
1642209935.8,286047001.6,N
1642209955.6,286047004.0,N
1642209975.4,286047001.5,N
1642209995.3,286047001.4,N
1642210015.1,286047002.4,N
1642210035.9,286046998.1,N
1642210055.7,286046998.4,N
1642210075.5,286046998.4,N
1642210095.4,286047000.2,N
1642210115.2,286047000.1,N
1642210135.0,286047002.1,N
1642210135.9,286047002.1,N
1642210155.8,286047001.7,N
1642210175.6,286047002.0,N
1642210195.5,286047001.5,N
1642210215.3,286047001.6,N
1642210235.1,286047001.5,N
1642210255.9,286047001.7,N
1642210275.7,286047002.3,N
1642210295.5,286047002.0,N
1642210315.4,286047001.8,N
1642210335.2,286047004.0,Y
1642210355.1,286047002.8,P
1642210356.0,286047002.8,P
1642210375.8,286047000.4,N
1642210395.6,286047000.9,N
1642210415.5,286046999.7,N
1642210435.3,286046999.8,N
1642210455.1,286047002.0,N
1642210475.9,286047001.7,N
1642210495.7,286047002.3,N
1642210515.6,286047002.5,N
1642210535.4,286047001.6,N
1642210555.2,286047001.4,N
1642210575.1,286047003.9,Y
1642210576.0,286047003.9,P
1642210595.8,286047000.5,N
1642210615.7,286047000.3,N
1642210635.5,286047000.9,N
1642210655.3,286047000.7,N
1642210675.2,286046998.1,N
1642210695.0,286046998.7,N
1642210695.9,286046998.7,N
1642210715.7,286046998.3,N
1642210735.6,286046998.1,N
1642210755.4,286046998.1,N
1642210775.3,286046999.9,N
1642210795.1,286047002.4,N
1642210796.0,286047002.4,N
1642210815.8,286047001.5,N
1642210835.7,286047001.0,N
1642210855.5,286046998.6,N
1642210875.3,286046999.4,N
1642210895.2,286046999.2,N
1642210915.0,286046999.4,N
1642210915.9,286046999.4,N
1642210935.8,286046998.3,N
1642210955.6,286047000.0,N
1642210975.4,286047000.5,N
1642210995.3,286046998.6,N
1642211015.1,286046996.6,N
1642211035.8,286046999.3,N
1642211055.7,286046996.5,N
1642211075.5,286046998.8,N
1642211095.4,286047000.6,N
1642211115.2,286047000.3,N
1642211135.0,286047000.3,N
1642211135.9,286047000.3,N
1642211155.8,286047002.4,N
1642211175.6,286047002.3,N
1642211195.4,286047000.0,N
1642211215.3,286047001.6,N
1642211235.1,286047000.6,N
1642211255.9,286047002.7,N
1642211275.7,286046999.9,N
1642211295.5,286046998.1,N
1642211315.4,286046998.4,N
1642211335.2,286047001.1,N
1642211355.1,286047000.9,N
1642211356.0,286047000.9,N
1642211375.8,286047002.4,N
1642211395.6,286047001.1,N
1642211415.5,286046999.7,N
1642211435.3,286047000.2,N
1642211455.1,286047001.0,N
1642211475.9,286046999.7,N
1642211495.7,286047001.0,N
1642211515.6,286047000.0,N
1642211535.4,286047001.0,N
1642211555.2,286047000.7,N
1642211575.1,286047000.7,N
1642211576.0,286047000.7,N
1642211595.8,286046998.2,N
1642211615.6,286047000.3,N
1642211635.5,286047000.0,N
1642211655.3,286047000.0,N
1642211675.2,286047000.0,N
1642211695.9,286046999.9,N
1642211715.7,286046999.9,N
1642211735.6,286047001.1,N
1642211755.4,286047001.6,N
1642211775.3,286047002.3,N
1642211795.1,286046998.3,N
1642211796.0,286046998.3,N
1642211815.8,286047001.1,N
1642211835.7,286046998.7,N
1642211855.5,286046998.7,N
1642211875.3,286047000.0,N
1642211895.2,286047000.3,N
1642211915.0,286046999.7,N
1642211915.9,286046999.7,N
1642211935.8,286047000.3,N
1642211955.6,286047002.6,N
1642211975.4,286047002.8,N
1642211995.3,286047000.5,N
